TimeCST,TemperatureF,Dew PointF,Humidity,Sea Level PressureIn,VisibilityMPH,Wind Direction,Wind SpeedMPH,Gust SpeedMPH,PrecipitationIn,Events,Conditions,WindDirDegrees,DateUTC
12:15 AM,44.1,35.2,71,29.98,10.0,South,11.5,-,N/A,,Clear,170,2012-11-19 06:15:00
12:35 AM,43.3,34.9,72,29.98,10.0,South,10.4,-,N/A,,Clear,170,2012-11-19 06:35:00
12:55 AM,42.8,35.1,74,29.98,10.0,South,6.9,-,N/A,,Clear,170,2012-11-19 06:55:00
1:15 AM,41.2,34.9,78,29.98,10.0,Calm,Calm,-,N/A,,Clear,0,2012-11-19 07:15:00
1:35 AM,41.4,35.1,78,29.98,10.0,Calm,Calm,-,N/A,,Clear,0,2012-11-19 07:35:00
1:55 AM,41.0,34.7,78,29.98,10.0,SSW,3.5,-,N/A,,Clear,200,2012-11-19 07:55:00
2:15 AM,39.4,34.2,82,29.97,10.0,South,8.1,-,N/A,,Clear,170,2012-11-19 08:15:00
2:35 AM,39.7,34.7,82,29.98,10.0,South,5.8,-,N/A,,Clear,190,2012-11-19 08:35:00
2:55 AM,39.4,34.3,82,29.97,10.0,SSW,4.6,-,N/A,,Clear,200,2012-11-19 08:55:00
3:15 AM,38.8,34.3,84,29.97,10.0,SSW,3.5,-,N/A,,Clear,210,2012-11-19 09:15:00
3:35 AM,38.3,34.0,84,29.96,10.0,South,4.6,-,N/A,,Clear,180,2012-11-19 09:35:00
3:55 AM,38.7,34.3,84,29.96,10.0,SSW,6.9,-,N/A,,Clear,200,2012-11-19 09:55:00
4:15 AM,38.8,34.3,84,29.96,10.0,South,4.6,-,N/A,,Clear,170,2012-11-19 10:15:00
4:35 AM,39.4,34.7,83,29.96,10.0,South,6.9,-,N/A,,Clear,180,2012-11-19 10:35:00
4:55 AM,37.4,33.6,86,29.96,10.0,SSW,8.1,-,N/A,,Clear,200,2012-11-19 10:55:00
5:15 AM,38.5,34.5,86,29.96,10.0,South,10.4,-,N/A,,Clear,180,2012-11-19 11:15:00
5:35 AM,40.1,34.9,82,29.96,10.0,SSW,9.2,-,N/A,,Clear,210,2012-11-19 11:35:00
5:55 AM,39.4,34.3,82,29.97,10.0,South,8.1,-,N/A,,Clear,180,2012-11-19 11:55:00
6:15 AM,39.2,34.2,82,29.96,10.0,SSW,5.8,-,N/A,,Clear,210,2012-11-19 12:15:00
6:35 AM,39.4,34.5,83,29.97,10.0,SSW,6.9,-,N/A,,Clear,210,2012-11-19 12:35:00
6:55 AM,40.1,35.1,82,29.96,10.0,SSW,5.8,-,N/A,,Clear,210,2012-11-19 12:55:00
7:35 AM,39.0,34.7,84,29.96,10.0,SW,5.8,-,N/A,,Clear,220,2012-11-19 13:35:00
7:55 AM,38.7,34.7,86,29.97,10.0,SW,5.8,-,N/A,,Clear,230,2012-11-19 13:55:00
8:15 AM,40.1,35.1,82,29.99,10.0,WSW,5.8,-,N/A,,Clear,250,2012-11-19 14:15:00
8:35 AM,41.5,35.6,79,29.98,10.0,WSW,6.9,-,N/A,,Clear,240,2012-11-19 14:35:00
8:55 AM,43.3,35.8,75,30.00,10.0,West,6.9,-,N/A,,Clear,280,2012-11-19 14:55:00
9:15 AM,45.3,36.5,71,30.00,10.0,WNW,10.4,-,N/A,,Clear,300,2012-11-19 15:15:00
9:35 AM,46.6,37.0,69,30.01,10.0,WNW,11.5,-,N/A,,Clear,300,2012-11-19 15:35:00
9:55 AM,47.8,36.9,66,30.01,10.0,NW,15.0,21.9,N/A,,Clear,310,2012-11-19 15:55:00
10:15 AM,49.1,37.6,64,30.02,10.0,NW,16.1,-,N/A,,Clear,320,2012-11-19 16:15:00
10:35 AM,50.0,37.6,62,30.03,10.0,NW,15.0,19.6,N/A,,Clear,320,2012-11-19 16:35:00
10:55 AM,51.8,37.6,58,30.04,10.0,NW,11.5,20.7,N/A,,Clear,320,2012-11-19 16:55:00
11:15 AM,52.7,37.8,57,30.03,10.0,NW,13.8,-,N/A,,Clear,320,2012-11-19 17:15:00
11:35 AM,52.7,37.6,56,30.03,10.0,NNW,11.5,-,N/A,,Clear,330,2012-11-19 17:35:00
11:55 AM,54.7,38.7,55,30.03,10.0,NW,15.0,20.7,N/A,,Clear,320,2012-11-19 17:55:00
12:15 PM,54.5,38.3,54,30.03,10.0,NNW,13.8,20.7,N/A,,Clear,330,2012-11-19 18:15:00
12:35 PM,54.7,38.1,54,30.04,10.0,NW,12.7,18.4,N/A,,Clear,310,2012-11-19 18:35:00
12:55 PM,56.3,38.1,51,30.04,10.0,NW,16.1,20.7,N/A,,Clear,310,2012-11-19 18:55:00
1:15 PM,56.7,37.4,49,30.04,10.0,NNW,19.6,24.2,N/A,,Clear,330,2012-11-19 19:15:00
1:35 PM,56.8,36.7,47,30.04,10.0,NW,15.0,20.7,N/A,,Clear,310,2012-11-19 19:35:00
1:55 PM,57.2,36.3,46,30.04,10.0,NW,12.7,19.6,N/A,,Clear,320,2012-11-19 19:55:00
2:15 PM,57.7,36.3,45,30.03,10.0,NW,13.8,-,N/A,,Clear,320,2012-11-19 20:15:00
2:35 PM,57.9,36.0,44,30.04,10.0,NW,11.5,16.1,N/A,,Clear,320,2012-11-19 20:35:00
2:55 PM,57.7,35.6,44,30.04,10.0,NNW,19.6,-,N/A,,Clear,330,2012-11-19 20:55:00
3:15 PM,57.4,35.8,44,30.04,10.0,NNW,12.7,18.4,N/A,,Clear,330,2012-11-19 21:15:00
3:35 PM,56.8,36.0,46,30.04,10.0,NNW,11.5,17.3,N/A,,Clear,330,2012-11-19 21:35:00
3:55 PM,56.3,36.0,46,30.05,10.0,NNW,10.4,-,N/A,,Clear,330,2012-11-19 21:55:00
4:15 PM,55.8,36.0,47,30.05,10.0,NNW,12.7,17.3,N/A,,Clear,330,2012-11-19 22:15:00
4:35 PM,54.1,36.0,50,30.06,10.0,NNW,6.9,-,N/A,,Clear,340,2012-11-19 22:35:00
4:55 PM,52.2,35.8,54,30.07,10.0,NNW,5.8,-,N/A,,Clear,340,2012-11-19 22:55:00
5:15 PM,50.9,35.8,56,30.08,10.0,NW,6.9,-,N/A,,Clear,320,2012-11-19 23:15:00
5:35 PM,48.4,35.2,60,30.08,10.0,WNW,3.5,-,N/A,,Clear,300,2012-11-19 23:35:00
5:55 PM,47.8,35.1,61,30.10,10.0,West,3.5,-,N/A,,Clear,280,2012-11-19 23:55:00
6:15 PM,46.6,34.5,63,30.10,10.0,Calm,Calm,-,N/A,,Clear,0,2012-11-20 00:15:00
6:35 PM,45.7,34.5,65,30.11,10.0,WNW,3.5,-,N/A,,Clear,300,2012-11-20 00:35:00
6:55 PM,43.3,33.6,69,30.12,10.0,NW,5.8,-,N/A,,Clear,320,2012-11-20 00:55:00
7:15 PM,39.2,32.2,76,30.12,10.0,Calm,Calm,-,N/A,,Clear,0,2012-11-20 01:15:00
7:35 PM,40.1,33.6,78,30.12,10.0,NNW,4.6,-,N/A,,Clear,330,2012-11-20 01:35:00
7:55 PM,37.0,32.0,82,30.13,10.0,NNW,3.5,-,N/A,,Clear,340,2012-11-20 01:55:00
8:15 PM,36.1,32.0,85,30.13,10.0,Calm,Calm,-,N/A,,Clear,0,2012-11-20 02:15:00
8:35 PM,38.3,32.7,80,30.14,10.0,Calm,Calm,-,N/A,,Clear,0,2012-11-20 02:35:00
8:55 PM,37.8,32.2,80,30.14,10.0,NW,4.6,-,N/A,,Clear,320,2012-11-20 02:55:00
9:15 PM,37.0,32.4,83,30.14,10.0,NNW,5.8,-,N/A,,Clear,330,2012-11-20 03:15:00
9:35 PM,38.3,32.5,80,30.14,10.0,NW,3.5,-,N/A,,Clear,320,2012-11-20 03:35:00
9:55 PM,36.9,32.0,83,30.14,10.0,Calm,Calm,-,N/A,,Clear,0,2012-11-20 03:55:00
10:15 PM,36.3,31.3,82,30.13,10.0,Calm,Calm,-,N/A,,Clear,0,2012-11-20 04:15:00
10:35 PM,37.0,31.5,80,30.14,10.0,Calm,Calm,-,N/A,,Clear,0,2012-11-20 04:35:00
10:55 PM,36.3,31.8,84,30.14,10.0,NW,4.6,-,N/A,,Clear,320,2012-11-20 04:55:00
11:15 PM,35.1,30.9,85,30.15,10.0,NW,3.5,-,N/A,,Clear,320,2012-11-20 05:15:00
11:35 PM,36.5,31.5,82,30.15,10.0,Calm,Calm,-,N/A,,Clear,0,2012-11-20 05:35:00
11:55 PM,36.0,31.5,84,30.15,10.0,NNW,4.6,-,N/A,,Clear,340,2012-11-20 05:55:00